Overview Statistics Trail Chart Weather Telemetry Raw packets
 

This is the latest recevied weather packets stored in our database for station/object SR8WXL-13. If no packets are shown the sender has not sent any weather packets the latest 10 day(s).

<< 13 14 15 16 17 18 19 >>
Time Temp. Humidity Pressure Rain* Wind** Luminosity Snow
1788355433 23.89° C 46% 1034.6 hPa 0 mm - - -
1788354708 22.78° C 48% 1034.8 hPa 0 mm - - -
1788353959 22.78° C 51% 1034.7 hPa 0 mm - - -
1788353157 23.89° C 50% 1034.9 hPa 0 mm - - -
1788352335 23.89° C 48% 1035 hPa 0 mm - - -
1788351524 22.78° C 49% 1035.2 hPa 0 mm - - -
1788350707 22.78° C 47% 1035.2 hPa 0 mm - - -
1788349894 22.78° C 49% 1035.5 hPa 0 mm - - -
1788349153 22.78° C 51% 1035.4 hPa 0 mm - - -
1788348379 22.78° C 48% 1035.4 hPa 0 mm - - -
1788347642 22.78° C 50% 1035.5 hPa 0 mm - - -
1788346867 22.78° C 52% 1035.9 hPa 0 mm - - -
1788346110 22.78° C 49% 1035.7 hPa 0 mm - - -
1788345390 22.78° C 54% 1035.7 hPa 0 mm - - -
1788344518 21.11° C 59% 1036 hPa 0 mm - - -
1788343749 21.11° C 61% 1035.9 hPa 0 mm - - -
1788342894 21.11° C 62% 1035.9 hPa 0 mm - - -
1788342020 22.22° C 60% 1035.9 hPa 0 mm - - -
1788340363 21.11° C 60% 1036.1 hPa 0 mm - - -
1788339581 22.22° C 59% 1035.9 hPa 0 mm - - -
1788338685 21.11° C 62% 1035.9 hPa 0 mm - - -
1788337880 20° C 66% 1036.1 hPa 0 mm - - -
1788337059 20° C 64% 1036.1 hPa 0 mm - - -
1788336339 21.11° C 64% 1036.2 hPa 0 mm - - -
1788335469 18.89° C 66% 1036.1 hPa 0 mm - - -

* Rain latest hour (hover to see other rain measurements)
** Current wind speed in m/s (hover to see current wind gust speed)